DW3693 Weather Reports


Display with metric or nautical units.
time (UTC)temp
F
wind
direction
speed
MPH
gust
MPH
rain 1hr
in
rain 24hr
in
rain mn
in
humidity
%
barometer
mb
20260906230517 62 293 1.0 3.0 0.00 0.15 0.15 80 1016.6
20260906225516 62 0.0 2.0 0.00 0.15 0.15 81 1016.6
20260906224517 62 0.0 2.0 0.00 0.15 0.15 83 1016.5
20260906223523 61 293 2.0 4.0 0.00 0.15 0.15 83 1016.5
20260906222517 62 180 1.0 3.0 0.00 0.15 0.15 83 1016.5
20260906221517 61 203 1.0 2.0 0.00 0.15 0.15 85 1016.5
20260906220516 60 203 1.0 3.0 0.00 0.15 0.15 86 1016.5
20260906215547 61 0.0 1.0 0.00 0.15 0.15 87 1016.6
20260906214517 61 135 1.0 2.0 0.00 0.15 0.15 86 1016.6
20260906213517 60 0.0 0.0 0.00 0.15 0.15 86 1016.5
20260906211547 59 0.0 1.0 0.00 0.15 0.15 87 1016.4
20260906210524 59 0.0 1.0 0.00 0.15 0.15 87 1016.5
20260906205517 59 0.0 2.0 0.00 0.15 0.15 89 1016.5
20260906204542 58 113 1.0 2.0 0.00 0.15 0.15 89 1016.4
20260906203517 58 0.0 2.0 0.00 0.15 0.15 90 1016.4
20260906202516 58 0.0 1.0 0.00 0.15 0.15 90 1016.4
20260906201518 57 0.0 2.0 0.00 0.15 0.15 91 1016.3
20260906195517 57 0.0 1.0 0.00 0.15 0.15 91 1016.4
20260906194607 57 0.0 1.0 0.00 0.15 0.15 91 1016.4
20260906193517 57 0.0 1.0 0.00 0.15 0.15 92 1016.3
20260906192516 57 0.0 2.0 0.00 0.15 0.15 92 1016.4
20260906191523 56 135 1.0 4.0 0.00 0.15 0.15 92 1016.4
20260906190516 56 0.0 2.0 0.00 0.15 0.15 93 1016.5
20260906185523 56 0.0 0.0 0.00 0.15 0.15 93 1016.4
20260906184648 56 0.0 1.0 0.00 0.15 0.15 93 1016.4
20260906183522 55 0.0 2.0 0.00 0.15 0.15 93 1016.6
20260906182523 55 0.0 0.0 0.00 0.15 0.15 94 1016.5
20260906181547 55 0.0 1.0 0.00 0.15 0.15 93 1016.5
20260906180516 55 0.0 0.0 0.00 0.15 0.15 93 1016.6
20260906175630 55 0.0 0.0 0.01 0.15 0.15 93 1016.6
20260906174531 55 0.0 2.0 0.01 0.15 0.15 93 1016.5
20260906173522 54 0.0 0.0 0.01 0.15 0.15 93 1016.6
20260906172522 54 0.0 0.0 0.01 0.15 0.15 94 1016.5
20260906171517 54 0.0 0.0 0.01 0.15 0.15 94 1016.5
20260906170521 54 0.0 0.0 0.01 0.15 0.15 94 1016.5
20260906164516 54 0.0 1.0 0.00 0.14 0.14 94 1016.4
20260906163607 54 0.0 0.0 0.01 0.14 0.14 94 1016.5
20260906162522 54 0.0 0.0 0.03 0.14 0.14 94 1016.4
20260906160546 53 0.0 1.0 0.05 0.14 0.14 94 1016.4
20260906155516 53 0.0 0.0 0.06 0.14 0.14 94 1016.3
20260906154516 53 0.0 0.0 0.07 0.14 0.14 94 1016.4
20260906153516 53 0.0 0.0 0.07 0.13 0.13 94 1016.4
20260906152516 53 0.0 0.0 0.05 0.11 0.11 94 1016.2
20260906151516 54 0.0 0.0 0.05 0.10 0.10 94 1016.1
20260906150521 54 0.0 1.0 0.05 0.09 0.09 94 1016.0
20260906145536 54 0.0 0.0 0.04 0.08 0.08 94 1015.9
20260906144516 54 0.0 0.0 0.04 0.07 0.07 94 1015.7
20260906143521 54 0.0 0.0 0.03 0.06 0.06 94 1015.6
20260906142527 54 0.0 0.0 0.03 0.07 0.06 94 1015.6
20260906141516 54 0.0 0.0 0.02 0.06 0.05 94 1015.5
20260906140518 54 0.0 0.0 0.01 0.05 0.04 94 1015.3
20260906135518 54 0.0 0.0 0.01 0.05 0.04 94 1015.4
20260906134515 54 0.0 0.0 0.00 0.04 0.03 94 1015.2
20260906133518 54 0.0 0.0 0.00 0.04 0.03 94 1015.1
20260906132515 54 0.0 0.0 0.00 0.04 0.03 94 1015.1
20260906131536 54 0.0 0.0 0.00 0.04 0.03 94 1015.1
20260906130515 53 0.0 0.0 0.00 0.04 0.03 94 1015.1
20260906125601 53 0.0 0.0 0.00 0.04 0.03 94 1015.1
20260906124518 54 0.0 0.0 0.00 0.04 0.03 94 1015.0
20260906123515 54 0.0 0.0 0.00 0.04 0.03 94 1015.2
20260906122516 54 0.0 0.0 0.00 0.04 0.03 94 1015.1
20260906121516 54 0.0 0.0 0.00 0.04 0.03 94 1015.1
20260906120515 54 0.0 0.0 0.00 0.04 0.03 94 1015.2
20260906115515 54 0.0 0.0 0.00 0.04 0.03 93 1015.3
20260906114516 54 0.0 1.0 0.00 0.04 0.03 93 1015.4
20260906113517 54 0.0 0.0 0.00 0.04 0.03 93 1015.5
20260906112518 54 0.0 0.0 0.00 0.04 0.03 93 1015.4
20260906111518 54 0.0 0.0 0.00 0.04 0.03 93 1015.4
20260906110517 54 0.0 0.0 0.01 0.04 0.03 93 1015.4
20260906105517 54 0.0 0.0 0.01 0.04 0.03 93 1015.5
20260906104516 54 0.0 0.0 0.02 0.04 0.03 93 1015.7
20260906103519 54 0.0 0.0 0.02 0.04 0.03 93 1015.9
20260906102537 54 0.0 0.0 0.03 0.04 0.03 93 1015.9
20260906101517 54 0.0 2.0 0.03 0.04 0.03 93 1016.0
20260906100547 54 0.0 0.0 0.02 0.03 0.02 92 1015.8
20260906095517 54 0.0 0.0 0.02 0.03 0.02 92 1015.8
20260906094522 54 0.0 0.0 0.01 0.02 0.01 92 1016.0
20260906093517 54 0.0 0.0 0.01 0.02 0.01 92 1015.9
20260906092517 54 0.0 0.0 0.00 0.01 0.00 92 1015.9
20260906091522 54 0.0 0.0 0.00 0.01 0.00 91 1015.7
20260906090548 54 0.0 0.0 0.00 0.01 0.00 91 1015.6
20260906085517 54 0.0 0.0 0.00 0.01 0.00 91 1015.7
20260906084516 54 0.0 0.0 0.00 0.01 0.00 91 1015.6
20260906083517 54 0.0 0.0 0.00 0.01 0.00 91 1015.7
20260906082517 54 0.0 0.0 0.00 0.01 0.00 91 1015.7
20260906081535 54 0.0 0.0 0.00 0.01 0.00 91 1015.7
20260906080516 54 0.0 0.0 0.00 0.01 0.00 91 1015.6
20260906075518 54 0.0 0.0 0.00 0.01 0.00 90 1015.6
20260906074517 54 0.0 0.0 0.00 0.01 0.00 90 1015.5
20260906073516 53 0.0 0.0 0.00 0.01 0.00 90 1015.4
20260906072517 54 0.0 0.0 0.00 0.01 0.00 90 1015.6
20260906071516 54 0.0 0.0 0.00 0.01 0.00 90 1015.5
20260906070546 53 0.0 0.0 0.00 0.01 0.00 90 1015.8
20260906065516 53 0.0 0.0 0.00 0.01 0.01 90 1015.6
20260906064522 53 0.0 0.0 0.00 0.01 0.01 90 1015.8
20260906063541 53 0.0 0.0 0.00 0.01 0.01 89 1015.8
20260906062516 53 0.0 0.0 0.00 0.01 0.01 89 1015.9
20260906061517 54 0.0 0.0 0.00 0.01 0.01 88 1015.8
20260906060517 54 0.0 0.0 0.00 0.01 0.01 88 1015.7
20260906055517 55 0.0 0.0 0.00 0.01 0.01 88 1015.8
20260906054516 55 0.0 0.0 0.00 0.01 0.01 87 1015.9
20260906053516 55 0.0 0.0 0.00 0.01 0.01 87 1015.9
20260906052516 55 0.0 0.0 0.00 0.01 0.01 87 1015.9
20260906051703 55 0.0 0.0 0.00 0.01 0.01 87 1015.9
20260906050531 55 0.0 0.0 0.00 0.01 0.01 87 1015.8
20260906045521 55 0.0 0.0 0.00 0.01 0.01 87 1015.9
20260906044706 55 0.0 0.0 0.00 0.01 0.01 88 1016.0
20260906043523 55 0.0 0.0 0.00 0.01 0.01 87 1016.0
20260906042516 55 0.0 0.0 0.00 0.01 0.01 87 1015.9
20260906041547 55 0.0 0.0 0.00 0.01 0.01 86 1016.0
20260906040607 56 0.0 0.0 0.00 0.01 0.01 85 1015.9
20260906034621 56 0.0 0.0 0.00 0.01 0.01 85 1015.6
20260906033519 57 0.0 0.0 0.00 0.01 0.01 83 1015.6
20260906032521 57 0.0 0.0 0.00 0.01 0.01 84 1015.5
20260906031521 57 0.0 0.0 0.00 0.01 0.01 84 1015.3
20260906030522 57 0.0 0.0 0.00 0.01 0.01 83 1015.2
20260906025517 58 0.0 1.0 0.00 0.01 0.01 82 1015.1
20260906024608 59 0.0 0.0 0.00 0.01 0.01 82 1015.1
20260906023516 60 0.0 0.0 0.00 0.01 0.01 80 1015.1
20260906022516 61 0.0 0.0 0.00 0.01 0.01 80 1015.1
20260906021522 61 0.0 1.0 0.00 0.01 0.01 79 1015.2
20260906020515 62 270 1.0 2.0 0.00 0.01 0.01 75 1015.1
20260906015536 63 0.0 1.0 0.00 0.01 0.01 72 1015.2
20260906014515 64 0.0 0.0 0.00 0.01 0.01 70 1015.2
20260906013515 65 0.0 1.0 0.00 0.01 0.01 71 1015.3
20260906012521 66 0.0 1.0 0.00 0.01 0.01 67 1015.3
20260906011521 66 158 1.0 2.0 0.00 0.01 0.01 65 1015.5
20260906010521 66 158 1.0 2.0 0.00 0.01 0.01 67 1015.4
20260906005521 67 158 1.0 3.0 0.00 0.01 0.01 65 1015.6
20260906004515 68 23 1.0 2.0 0.00 0.01 0.01 64 1015.8
20260906003521 67 293 1.0 2.0 0.00 0.01 0.01 68 1015.6
20260906001522 66 180 2.0 6.0 0.00 0.01 0.01 70 1015.9
20260906000515 65 158 1.0 4.0 0.00 0.01 0.01 71 1015.9
20260905235523 65 180 2.0 5.0 0.00 0.01 0.01 69 1015.8
20260905234517 66 158 2.0 4.0 0.00 0.01 0.01 66 1015.8
20260905233526 67 0.0 0.0 0.00 0.01 0.01 60 1015.7